Overview Statistics Trail Chart Weather Telemetry Raw packets
 

This is the latest recevied weather packets stored in our database for station/object WD7OO. If no packets are shown the sender has not sent any weather packets the latest 10 day(s).

<< 24 25 26 27 28 29 30 >>
Time Temp. Humidity Pressure Rain* Wind** Luminosity Snow
1788461384 28.89° C 73% 1016.1 hPa 0 mm - 326 W/m² -
1788461082 28.89° C 73% 1016 hPa 0 mm - 434 W/m² -
1788460776 28.89° C 74% 1015.8 hPa 0 mm - 420 W/m² -
1788460470 29.44° C 74% 1015.8 hPa 0 mm - 395 W/m² -
1788460170 29.44° C 72% 1015.8 hPa 0 mm - 273 W/m² -
1788459869 30° C 72% 1015.6 hPa 0 mm - 151 W/m² -
1788459565 31.11° C 70% 1015.7 hPa 0 mm - 124 W/m² -
1788459259 33.33° C 63% 1015.5 hPa 0 mm - 266 W/m² -
1788458958 33.33° C 64% 1015.2 hPa 0 mm - 463 W/m² -
1788458653 33.33° C 64% 1014.9 hPa 0 mm - 474 W/m² -
1788458353 33.33° C 64% 1015.1 hPa 0 mm - 406 W/m² -
1788458048 33.33° C 63% 1015.2 hPa 0 mm - 351 W/m² -
1788457741 33.89° C 62% 1015.2 hPa 0 mm - 416 W/m² -
1788457436 34.44° C 60% 1015.5 hPa 0 mm - 529 W/m² -
1788457130 34.44° C 61% 1015.3 hPa 0 mm - 526 W/m² -
1788456826 33.89° C 62% 1015.1 hPa 0 mm - 641 W/m² -
1788456522 33.89° C 60% 1015.1 hPa 0 mm - 678 W/m² -
1788456216 34.44° C 59% 1015.2 hPa 0 mm - 675 W/m² -
1788455912 33.89° C 61% 1014.8 hPa 0 mm - 645 W/m² -
1788455607 33.89° C 62% 1014.9 hPa 0 mm - 622 W/m² -
1788455306 33.33° C 64% 1014.9 hPa 0 mm - 619 W/m² -
1788455002 33.89° C 61% 1014.7 hPa 0 mm - 628 W/m² -
1788454700 33.89° C 62% 1014.7 hPa 0 mm - 663 W/m² -
1788454394 33.89° C 62% 1014.7 hPa 0 mm - 689 W/m² -
1788454094 33.89° C 65% 1014.8 hPa 0 mm - 702 W/m² -

* Rain latest hour (hover to see other rain measurements)
** Current wind speed in m/s (hover to see current wind gust speed)